Skip Page Navigation
NASA JPL Caltech
NASA Logo - Jet Propulsion Laboratory + View the NASA Portal
+ Center for Near-Earth Object Studies
JPL Home Earth Solar System Stars & Galaxies Technology
JPL Solar System Dynamics
BODIES ORBITS EPHEMERIDES TOOLS PHYSICAL DATA DISCOVERY FAQ SITE MAP
JPL Small-Body Database Browser
Search: [ help ]  
295392 (2008 JT6)
Classification: Main-belt Asteroid          SPK-ID: 2295392
Ephemeris | Orbit Diagram | Orbital Elements | Mission Design | Physical Parameters | Discovery Circumstances | Close-Approach Data ]

[ show orbit diagram ]
Orbital Elements at Epoch 2459000.5 (2020-May-31.0) TDB
Reference: JPL 11 (heliocentric ecliptic J2000)
 Element Value Uncertainty (1-sigma)   Units 
e .1762209387771264 5.3886e-08  
a 2.230478165755482 1.8503e-08 au
q 1.837421209464168 1.2872e-07 au
i 3.507461043657855 4.7732e-06 deg
node 184.9468239146918 8.8863e-05 deg
peri 144.3707223415422 9.1879e-05 deg
M 144.456891041493 2.0208e-05 deg
tp 2458512.262476155505
(2019-Jan-28.76247616)
6.6652e-05 TDB
period 1216.733291965507
3.33
1.514e-05
4.145e-08
d
yr
n .2958742087334992 3.6817e-09 deg/d
Q 2.623535122046796 2.1764e-08 au
  Orbit Determination Parameters
   # obs. used (total)      178  
   data-arc span      5718 days (15.66 yr)  
   first obs. used      2002-10-10  
   last obs. used      2018-06-06  
   planetary ephem.      DE431  
   SB-pert. ephem.      SB431-N16  
   condition code      0  
   norm. resid. RMS      .47654  
   source      ORB  
   producer      Otto Matic  
   solution date      2019-Jul-14 11:03:51  

Additional Information
 Earth MOID = .827869 au 
 Jupiter MOID = 2.72225 au 
 T_jup = 3.619 
[ show covariance matrix ]

Ephemeris | Orbit Diagram | Orbital Elements | Mission Design | Physical Parameters | Discovery Circumstances | Close-Approach Data ]

Physical Parameter Table
Parameter Symbol Value Units Sigma Reference Notes
absolute magnitude H 17.7   n/a MPO446423  

295392 (2008 JT6)          Discovered 2008-May-02 by Spacewatch at Kitt Peak
Reference: 20110912/Numbers.arcLast Updated: 2011-09-14

[ show close-approach data ]
Alternate Designations
 2008 JT6 = 2002 TS262 
Ephemeris | Orbit Diagram | Orbital Elements | Mission Design | Physical Parameters | Discovery Circumstances | Close-Approach Data ]
ABOUT SSD CREDITS/AWARDS PRIVACY/COPYRIGHT GLOSSARY LINKS
FirstGov 2020-Aug-13 11:42 UT
(server date/time)  
NASA Home Page
Site Manager:   Ryan S. Park
Webmaster  Alan B. Chamberlin